Welcome to the New NWS' Forecast!
Most changes are behind the scenes, but click here for differences you might notice.
Latest weather observations around

Montgomery, Dannelly Field (KMGM)

Using International System of Units (Switch to English Units)
Date/ Time (CDT) Wind (kph) Vis. (km) Weather Sky Cond. Temp (°C) Rel. Humidity Wind Chill (°C) Heat Index (°C) Pressure Precip. (cm)
Air Dwpt 6 hour Altimeter (hPa) Sea level (hPa) 1 hr 3 hr 6 hr
Max Min
Oct 18 12:53 9 16.09 Clear CLR 24 11     43%   24 1025.7 1025.6      
Oct 18 11:53 N 9 16.09 Clear CLR 23 11     46%   23 1026.8 1026.6      
Oct 18 10:53 NNE 13 16.09 Clear CLR 22 11     51%   21 1027.1 1027      
Oct 18 09:53 NNE 11 16.09 Clear CLR 20 11     55%     1027.4 1027.1      
Oct 18 08:53 NE 15 16.09 Clear CLR 18 11     61%     1027.4 1027.1      
Oct 18 07:53 N 8 16.09 Clear CLR 16 11     72%     1027.1 1026.8      
Oct 18 06:53 NNW 8 16.09 Clear CLR 14 11     83%     1026.4 1026.2      
Oct 18 05:53 NE 8 16.09 Clear CLR 15 11     75%     1025.7 1025.6      
Oct 18 04:53 NNE 11 16.09 Clear CLR 16 11     72%     1025.7 1025.4      
Oct 18 03:53 NNE 9 16.09 Partly Cloudy SCT085 16 12     75%     1025.4 1025.2      
Oct 18 02:53 N 11 16.09 Mostly Clear FEW090 16 12     78%     1025.4 1025.2      
Oct 18 01:53 N 9 16.09 Clear CLR 17 13     78%     1025.4 1025.2      
Oct 18 00:53 N 11 16.09 Clear CLR 17 13     80%     1025.4 1025.1      
Oct 17 23:53 N 9 16.09 Clear CLR 17 14     81%     1025.4 1025.1      
Oct 17 22:53 NNW 9 16.09 Clear CLR 18 14     81%     1025.4 1025.3      
Oct 17 21:53 N 8 16.09 Clear CLR 18 14     78%     1025.4 1025.2      
Oct 17 20:53 N 9 16.09 Clear   19 15     76%     1025.1 1024.8      
Oct 17 19:53 N 13 16.09 Mostly Cloudy BKN060 21 16     73%     1024.7 1024.4      
Oct 17 18:53 N 17 16.09 Cloudy OVC060 22 17     73%   22 1023.7 1023.6      
Oct 17 17:53 N 17 16.09 Cloudy OVC046 23 18     71%   24 1023 1022.9      
Oct 17 16:53 NNE 15 16.09 Cloudy OVC044 26 18     62%   26 1022.7 1022.4      
Oct 17 15:53 N 13 16.09 Mostly Cloudy BKN046 25 18     64%   25 1022.7 1022.2      
Oct 17 14:53 NW 8 16.09 Cloudy BKN048 OVC055 25 18     66%   25 1022.7 1022.3      
Oct 17 13:53 N 9 16.09 Cloudy OVC044 24 18     69%   25 1023 1022.6      
Oct 17 12:53 NNE 11 16.09 Cloudy OVC033 24 18     69%   25 1023.4 1023      
Oct 17 11:53 N 17 16.09 Cloudy OVC030 25 19     69%   25 1023.7 1023.5      
Oct 17 11:34 N 15 16.09 Cloudy OVC031 24 19     71%   25 1024.1        
Oct 17 10:53 N 15 16.09 Cloudy BKN015 OVC027 23 18     76%   23 1024.1 1023.8      
Oct 17 09:53 NNE 13 16.09 Cloudy OVC022 22 19     82%   23 1023.7 1023.2      
Oct 17 08:53 NE 9 16.09 Cloudy OVC020 21 19     87%     1023 1022.9      
Oct 17 07:53 N 11 16.09 Cloudy OVC019 20 19     93%     1022.7 1022.5      
Oct 17 06:53 N 9 16.09 Cloudy OVC015 20 19     93%     1022.4 1022      
Oct 17 06:30 N 13 16.09 Cloudy OVC015 21 19     90%     1022.4        
Oct 17 05:53 N 8 16.09 Cloudy OVC010 21 19     93%     1021.7 1021.5      
Oct 17 04:53 NNW 13 12.87 Cloudy OVC010 21 20     93%     1021.3 1020.9      
Oct 17 03:53 NW 5 14.48 Cloudy SCT006 OVC013 21 21     97%     1020.3 1020.1      
Oct 17 02:53 Calm 12.87 Cloudy OVC005 21 21     97%     1020.3 1019.9      
Oct 17 01:53 Calm 11.27 Mostly Cloudy BKN006 21 21     97%     1020.3 1020      
Oct 17 00:53 Calm 16.09 Mostly Cloudy FEW005 BKN038 BKN048 21 21     97%     1020 1019.7 0   1
Oct 17 00:43 N 8 14.48 Light Rain SCT005 BKN038 OVC046 22 21     93%   22 1020   0    
Oct 17 00:30 NNW 8 9.66 Light Rain and Fog/Mist BKN005 OVC045 22 21     93%   22 1020.3   0    
Oct 16 23:06 NNW 11 4.02 Heavy Rain and Fog/Mist FEW009 BKN026 OVC050 22 21     93%   22 1021   0    
Oct 16 22:56 Calm 2.82 Heavy Rain and Fog/Mist FEW009 BKN041 OVC050 22 21     96%   22 1020.7   0    
Oct 16 22:53 S 5 4.83 Light Rain and Fog/Mist FEW009 BKN041 OVC050 22 21     93%   23 1021 1020.6 0    
Oct 16 21:53 NNE 8 16.09 Mostly Cloudy BKN065 23 21     90%   23 1020.7 1020.2 0 0  
Oct 16 20:53 NNW 18 16.09 Cloudy BKN040 BKN065 OVC090 24 21     82%   25 1020 1019.6 0    
Oct 16 19:53 NNW 15 16.09 Cloudy BKN044 BKN055 OVC065 26 23     82%   28 1019.3 1019      
Oct 16 18:53 NNW 5 16.09 Clear   26 22     79%   28 1019 1018.5      
Oct 16 17:53 WNW 9 16.09 Clear CLR 27 22     74%   30 1018.3 1018.1      
Oct 16 16:53 WNW 8 16.09 Clear CLR 29 22     63%   32 1018 1017.7      
Oct 16 15:53 5 16.09 Clear CLR 29 21     61%   32 1018 1017.6      
Oct 16 14:53 SW 11 16.09 Mostly Clear FEW035 29 21     61%   32 1018.3 1018      
Oct 16 13:53 SW 11 16.09 Mostly Clear FEW030 30 22     61%   33 1018.3 1018.1      
Oct 16 13:00 S 9 16.09 Partly Cloudy SCT025 SCT034 29 22     67%   32 1019.3        
Oct 16 12:53 S 11 16.09 Mostly Cloudy BKN025 30 22     63%   33 1019.3 1019      
Oct 16 12:31 Calm 16.09 Mostly Cloudy BKN025 BKN032 28 22     70%   31 1019.7        
Oct 16 11:53 SSE 8 16.09 Mostly Cloudy SCT025 BKN030 28 23     74%   31 1020 1019.8      
Oct 16 10:53 Calm 16.09 Cloudy OVC015 27 23     77%   30 1020.7 1020.2      
Oct 16 09:53 5 16.09 Cloudy OVC011 26 23     82%   28 1020.7 1020.3      
Oct 16 09:09 Calm 14.48 Cloudy FEW005 OVC014 24 23     94%   25 1020.7        
Oct 16 08:53 Calm 11.27 Cloudy OVC014 24 23     96%   25 1020.7 1020.3      
Oct 16 08:50 Calm 11.27 Cloudy FEW005 OVC014 24 23     94%   25 1020.7        
Oct 16 08:00 Calm 8.05 Fog/Mist OVC013 23 22     96%   24 1020.3        
Oct 16 07:53 Calm 2.01 Fog/Mist OVC009 23 22     96%   24 1020.3 1019.9      
Oct 16 07:07 Calm 2.01 Fog/Mist OVC009 22 22     97%   23 1020        
Oct 16 06:53 Calm 0.4 Fog BKN007 OVC011 22 22     100%   23 1020 1019.5      
Oct 16 06:19 W 8 0.4 Fog VV002 22 21     96%   22 1019.7        
Oct 16 06:06 SW 5 0.8 Fog BKN003 21 21     100%     1019.7        
Oct 16 06:04 SSW 5 1.21 Fog/Mist FEW004 SCT013 21 21     100%     1019.7        
Oct 16 05:53 Calm 1.61 Fog/Mist VV003 21 21     97%     1019.3 1019.1      
Oct 16 05:40 Calm 0.8 Fog VV003 21 20     96%     1019.3        
Oct 16 05:30 Calm 0.4 Fog VV003 21 21     100%     1019.3        
Oct 16 05:19 Calm 0.4 Fog CLR 22 21     96%   22 1019.3        
Oct 16 05:12 Calm 0.8 Fog CLR 22 21     96%   22 1019.3        
Oct 16 04:53 Calm 0.4 Fog CLR 21 21     97%     1019 1018.7      
Oct 16 04:37 Calm 1.21 Fog/Mist CLR 22 21     96%   22 1019        
Oct 16 04:30 Calm 2.82 Fog/Mist FEW060 22 21     96%   22 1019        
Oct 16 03:53 NW 5 4.83 Fog/Mist FEW060 FEW100 22 22     97%   23 1019 1018.5      
Oct 16 03:44 WNW 9 3.22 Fog/Mist CLR 22 22     97%   23 1018.6        
Oct 16 03:37 WNW 5 1.61 Fog/Mist CLR 22 22     100%   23 1018.6        
Oct 16 03:29 NW 5 2.82 Fog/Mist FEW100 22 22     97%   23 1018.6        
Oct 16 02:53 NW 5 6.44 Fog/Mist FEW085 SCT100 22 22     97%   23 1019 1018.6      
Oct 16 01:53 Calm 8.05 Fog/Mist BKN110 23 22     96%   24 1019 1018.7      
Oct 16 01:30 Calm 9.66 Fog/Mist FEW003 FEW110 23 22     96%   24 1019.3        
Oct 16 00:53 SE 9 9.66 Fog/Mist BKN080 BKN110 23 22     96%   24 1019.3 1018.8     0
Oct 15 23:53 W 5 16.09 Partly Cloudy FEW060 SCT110 23 22     94%   24 1019.3 1019 0    
Oct 15 22:53 Calm 11.27 Light Rain FEW070 SCT085 BKN110 24 22     90%   25 1019.7 1019.3 0    
Oct 15 21:53 Calm 16.09 Partly Cloudy SCT060 SCT120 24 22     88%   25 1019.7 1019.3      
Oct 15 20:53 Calm 16.09 Cloudy SCT075 OVC100 25 22     84%   26 1019.7 1019.1      
Oct 15 19:53 N 5 16.09 Partly Cloudy SCT120 26 22     82%   26 1019.3 1018.9      
Oct 15 18:53 Calm 16.09 Clear CLR 25 22     84%   26 1018.6 1018.3      
Oct 15 17:53 Calm 16.09 Mostly Cloudy BKN110 28 22     67%   31 1018.3 1018      
Oct 15 16:53 NW 5 16.09 Mostly Cloudy BKN080 BKN100 29 22     65%   32 1018.3 1017.8      
Oct 15 15:53 W 5 16.09 Partly Cloudy SCT090 29 21     61%   32 1018.3 1017.8      
Oct 15 14:53 W 11 16.09 Mostly Clear FEW033 30 21     59%   33 1018.3 1017.9      
Oct 15 13:53 9 16.09 Cloudy BKN043 BKN055 OVC090 29 22     65%   32 1018.6 1018.3      
Oct 15 12:53 SSW 9 16.09 Mostly Cloudy SCT032 BKN050 29 22     63%   32 1019.3 1018.9      
Oct 15 11:53 WSW 11 16.09 Mostly Cloudy FEW020 SCT024 BKN048 28 22     70%   31 1019.7 1019.4      
Oct 15 10:53 SW 13 16.09 Cloudy BKN018 BKN024 OVC029 27 22     74%   29 1020.3 1020      
Oct 15 10:39 SSW 13 16.09 Mostly Cloudy SCT016 BKN024 BKN029 26 22     77%   28 1020.3        
Oct 15 09:53 S 9 16.09 Mostly Clear FEW009 25 20     74%   25 1020.3 1019.8      
Oct 15 09:48 SSE 13 16.09 Partly Cloudy SCT009 SCT027 25 20     74%   25 1020.3        
Oct 15 09:31 SSE 9 16.09 Mostly Cloudy SCT009 BKN027 24 19     76%   24 1020        
Oct 15 08:53 ESE 5 16.09 Cloudy BKN022 OVC026 22 18     79%   23 1020 1019.8      
Oct 15 07:53 Calm 16.09 Mostly Cloudy BKN017 BKN022 20 17     84%     1019.7 1019.6      
Oct 15 06:53 ESE 5 16.09 Partly Cloudy SCT015 18 16     90%     1019 1018.6      
Oct 15 06:26 E 5 16.09 Mostly Cloudy BKN015 18 16     87%     1019        
Oct 15 05:53 E 9 16.09 Clear CLR 18 16     90%     1018.3 1018.1      
Oct 15 04:53 E 5 16.09 Clear CLR 18 16     90%     1018.3 1017.8      
Oct 15 03:53 E 11 16.09 Clear CLR 18 16     90%     1018 1017.7      
Oct 15 02:53 Calm 16.09 Clear CLR 18 17     90%     1018.3 1018      
Oct 15 01:53 Calm 16.09 Clear CLR 19 17     87%     1018.6 1018.2      
Oct 15 00:53 E 5 16.09 Clear CLR 19 17     84%     1018.3 1017.8      
Oct 14 23:53 ESE 5 16.09 Clear   20 17     84%     1018 1017.6      
Oct 14 22:53 E 8 16.09 Clear CLR 20 17     84%     1018.3 1017.9      
Oct 14 21:53 ESE 8 16.09 Clear CLR 22 17     76%   22 1018.3 1018      
Oct 14 20:53 ESE 11 16.09 Clear CLR 21 17     78%     1017.6 1017.5      
Oct 14 19:53 SE 9 16.09 Clear CLR 23 17     71%   23 1017.6 1017.3      
Oct 14 18:53 SE 9 16.09 Clear CLR 24 17     64%   24 1016.9 1016.7      
Oct 14 17:53 SE 9 16.09 Clear CLR 27 17     54%   27 1016.6 1016.2      
Oct 14 16:53 SE 11 16.09 Mostly Cloudy BKN110 30 15     40%   30 1016.3 1015.8      
Oct 14 15:53 E 11 16.09 Cloudy OVC110 30 16     42%   30 1016.3 1016      
Oct 14 14:53 8 16.09 Clear CLR 31 14     36%   30 1016.3 1015.8      
Oct 14 13:53 SSE 15 16.09 Clear CLR 31 14     36%   30 1016.3 1016      
Oct 14 12:53 9 16.09 Clear CLR 30 15     40%   30 1016.9 1016.6      
Oct 14 11:53 5 16.09 Mostly Clear FEW120 28 17     51%   29 1018 1017.4      
Oct 14 10:53 SSE 11 16.09 Clear CLR 27 17     56%   27 1018 1017.5      
Oct 14 09:53 SSE 5 16.09 Mostly Cloudy BKN110 23 16     66%   23 1018.3 1018      
Oct 14 08:53 ESE 8 16.09 Mostly Clear FEW110 21 16     75%     1018 1017.8      
Oct 14 07:53 NNW 5 16.09 Clear CLR 18 16     87%     1017.6 1017.5      
Oct 14 06:53 E 11 16.09 Clear CLR 16 14     93%     1016.6 1016.3      
Oct 14 05:53 Calm 16.09 Clear CLR 17 15     90%     1016.6 1016.5      
Oct 14 04:53 E 8 16.09 Partly Cloudy SCT110 17 15     87%     1016.3 1016.1      
Oct 14 03:53 E 11 16.09 Mostly Clear FEW110 17 15     87%     1015.6 1015.3      
Oct 14 02:53 E 9 16.09 Mostly Clear FEW095 17 15     87%     1015.6 1015.3      
Oct 14 01:53 Calm 16.09 Clear CLR 17 15     90%     1015.2 1015.1      
Oct 14 00:53 ENE 5 16.09 Clear CLR 18 14     81%     1014.9 1014.7      
Oct 13 23:53 SE 11 16.09 Clear CLR 17 16     93%     1015.2 1015.1      
Oct 13 22:53 Calm 16.09 Clear CLR 17 15     87%     1015.6 1015.4      
Oct 13 21:53 ESE 5 16.09 Clear CLR 17 15     87%     1015.9 1015.7      
Oct 13 20:53 Calm 16.09 Clear CLR 18 16     84%     1015.6 1015.4      
Oct 13 19:53 Calm 16.09 Clear CLR 19 15     76%     1014.9 1014.7      
Oct 13 18:53 Calm 16.09 Clear CLR 21 14     66%     1013.9 1013.6      
Oct 13 17:53 Calm 16.09 Clear CLR 25 14     50%   25 1013.6 1013.3      
Oct 13 16:53 Calm 16.09 Clear CLR 26 12     42%   26 1013.6 1013.3      
Oct 13 15:53 5 16.09 Clear CLR 27 12     41%   26 1013.6 1013.4      
Oct 13 13:53 Calm 16.09 Clear CLR 26 12     42%   26 1014.6 1014.4      
Oct 13 12:53 Calm 16.09 Clear CLR 26 12     41%   26 1015.2 1015.1      
May 15 10:53 E 13 16.09 Cloudy BKN033 OVC041 28 19     59%   30 1015.6 1015.1      
May 14 19:53 SE 11 16.09 Clear CLR 26 20     69%   27 1013.6 1013.3      
May 14 17:53 NE 8 16.09 Clear CLR 32 17     42%   32 1013.2 1012.8      
May 14 12:53 N 11 16.09 Mostly Clear FEW070 34 16     33%   34 1015.9 1015.4      
May 14 11:53 N 8 16.09 Clear CLR 34 18     38%   35 1016.3 1015.9      
May 13 00:53 Calm 16.09 Clear CLR 19 17     87%     1018.3 1018      
May 12 15:53 SW 11 16.09 Clear CLR 33 12     28%   31 1018.6 1018.3      
May 11 16:53 Calm 16.09 Mostly Clear FEW080 32 13     32%   31 1017.6 1017.2      
May 11 11:53 5 16.09 Clear CLR 30 15     40%   30 1020.7 1020.3      
Jun 12 08:37 ESE 13 16.09 Mostly Clear FEW015 27 21     69%   29 1021.3        
Jun 11 20:53 ESE 8 16.09 Clear CLR 26 22     77%   28 1019.3 1019.1      
Jun 11 16:53 SSE 15 16.09 Clear CLR 29 20     59%   31 1018.3 1018      
Jun 11 10:53 SE 11 16.09 Mostly Clear FEW028 30 20     55%   32 1020.7 1020.3      
Jun 11 10:10 ESE 11 16.09 Partly Cloudy SCT023 29 21     61%   32 1021        
Jun 11 09:53 SE 13 16.09 Mostly Cloudy BKN023 29 21     63%   31 1021 1020.6      
Jun 09 16:53 S 8 16.09 Clear CLR 31 13     35%   30 1013.2 1012.7      
Jun 09 15:53 8 16.09 Mostly Clear FEW060 30 13     36%   29 1013.6 1013.1      
Jun 08 06:53 Calm 16.09 Clear CLR 19 14     73%     1012.2 1012      
Jun 07 10:53 NNE 17 16.09 Clear CLR 27 19     62%   28 1008.1 1007.7      
Jun 06 13:58 N 15 3.22 Heavy Rain FEW027 BKN034 OVC060 24 21     84%   25 1006.8   0    
Jun 06 13:43 N 17 2.01 Heavy Rain FEW006 BKN022 OVC040 23 21     85%   24 1007.1   1    
Jun 06 12:53 SE 18 16.09 Mostly Cloudy FEW021 SCT033 BKN042 27 21     71%   28 1007.5 1007      
Jun 06 09:53 NE 15 16.09 Mostly Cloudy BKN007 26 22     77%   28 1007.8 1007.4      
Jun 06 07:53 Calm 16.09 Mostly Clear FEW004 23 21     85%   24 1008.5 1008.2      
Notice The following observation data may not be complete
Jun 05 21:03   9.66 Rain FEW006 BKN023 OVC110          %         0    
Jun 05 19:28 N 5 16.09 Mostly Cloudy SCT027 BKN065 24 20     79%   24 1008.8